• In Hungary
  • List of Countries
  • For 7 days
  • Water Temperature
  • Satellite Maps
  • Weather Map
  • News
  • Weather Widgets
  • user-avatar
    Login

    Hourly Weather Madras

    Today, 15 December, Friday

    Time Temperature Precipitation Wind Pressure Humidity
    00:00 +26°C° 0 mm 4 mps 759 mmHg 86%
    01:00 +26°C° 0 mm 4 mps 759 mmHg 87%
    02:00 +26°C° 0 mm 4 mps 758 mmHg 87%
    03:00 +25°C° 0.1 mm 4 mps 759 mmHg 88%
    04:00 +25°C° 0.1 mm 4 mps 759 mmHg 89%
    05:00 +25°C° 0 mm 4 mps 759 mmHg 91%
    06:00 +26°C° 0.1 mm 4 mps 759 mmHg 87%
    07:00 +27°C° 0.1 mm 5 mps 760 mmHg 83%
    08:00 +28°C° 0.1 mm 5 mps 760 mmHg 79%
    09:00 +29°C° 0.1 mm 5 mps 760 mmHg 73%
    10:00 +32°C° 0.1 mm 6 mps 760 mmHg 67%
    11:00 +33°C° 0 mm 6 mps 760 mmHg 61%
    12:00 +33°C° 0 mm 6 mps 760 mmHg 61%
    13:00 +33°C° 0 mm 6 mps 759 mmHg 61%
    14:00 +33°C° 0 mm 7 mps 759 mmHg 61%
    15:00 +32°C° 0 mm 6 mps 759 mmHg 65%
    16:00 +29°C° 0 mm 6 mps 759 mmHg 70%
    17:00 +28°C° 0 mm 6 mps 759 mmHg 75%
    18:00 +28°C° 0 mm 6 mps 759 mmHg 77%
    19:00 +27°C° 0 mm 5 mps 760 mmHg 79%
    20:00 +27°C° 0 mm 5 mps 761 mmHg 81%
    21:00 +27°C° 0 mm 5 mps 761 mmHg 81%
    22:00 +27°C° 0 mm 5 mps 761 mmHg 82%
    23:00 +26°C° 0 mm 5 mps 761 mmHg 83%

    Tomorrow, 16 December, Saturday

    Time Temperature Precipitation Wind Pressure Humidity
    00:00 +26°C° 0 mm 5 mps 760 mmHg 84%
    01:00 +26°C° 0 mm 5 mps 760 mmHg 85%
    02:00 +26°C° 0 mm 5 mps 759 mmHg 85%
    03:00 +26°C° 0 mm 5 mps 759 mmHg 85%
    04:00 +26°C° 0 mm 5 mps 760 mmHg 85%
    05:00 +26°C° 0 mm 5 mps 760 mmHg 85%
    06:00 +27°C° 0 mm 5 mps 760 mmHg 80%
    07:00 +28°C° 0 mm 5 mps 761 mmHg 76%
    08:00 +29°C° 0 mm 6 mps 761 mmHg 71%
    09:00 +29°C° 0 mm 6 mps 761 mmHg 67%
    10:00 +30°C° 0 mm 6 mps 761 mmHg 64%
    11:00 +32°C° 0 mm 6 mps 761 mmHg 60%
    12:00 +32°C° 0 mm 6 mps 761 mmHg 59%
    13:00 +32°C° 0 mm 6 mps 760 mmHg 59%
    14:00 +32°C° 0 mm 6 mps 759 mmHg 58%
    15:00 +30°C° 0 mm 6 mps 759 mmHg 62%
    16:00 +29°C° 0 mm 6 mps 759 mmHg 67%
    17:00 +28°C° 0 mm 5 mps 759 mmHg 72%
    18:00 +28°C° 0 mm 5 mps 760 mmHg 74%
    19:00 +27°C° 0 mm 5 mps 760 mmHg 76%
    20:00 +27°C° 0 mm 5 mps 761 mmHg 78%
    21:00 +26°C° 0 mm 5 mps 761 mmHg 79%
    22:00 +26°C° 0 mm 5 mps 761 mmHg 79%
    23:00 +26°C° 0 mm 5 mps 761 mmHg 80%

    Day after tomorrow, 17 December, Sunday

    Time Temperature Precipitation Wind Pressure Humidity
    00:00 +26°C° 0 mm 5 mps 761 mmHg 80%
    01:00 +26°C° 0 mm 5 mps 761 mmHg 80%
    02:00 +26°C° 0 mm 5 mps 760 mmHg 80%
    03:00 +26°C° 0 mm 5 mps 760 mmHg 80%
    04:00 +25°C° 0 mm 5 mps 760 mmHg 80%
    05:00 +25°C° 0 mm 5 mps 760 mmHg 80%
    06:00 +26°C° 0 mm 6 mps 761 mmHg 76%
    07:00 +28°C° 0 mm 6 mps 762 mmHg 71%
    08:00 +29°C° 0 mm 6 mps 762 mmHg 67%
    09:00 +30°C° 0 mm 7 mps 762 mmHg 63%
    10:00 +30°C° 0 mm 7 mps 762 mmHg 59%
    11:00 +32°C° 0 mm 7 mps 762 mmHg 55%
    12:00 +32°C° 0 mm 7 mps 761 mmHg 55%
    13:00 +32°C° 0 mm 7 mps 760 mmHg 54%
    14:00 +32°C° 0 mm 7 mps 759 mmHg 54%
    15:00 +30°C° 0 mm 7 mps 759 mmHg 58%
    16:00 +29°C° 0 mm 7 mps 760 mmHg 62%
    17:00 +28°C° 0 mm 6 mps 760 mmHg 67%
    18:00 +27°C° 0 mm 6 mps 760 mmHg 69%
    19:00 +27°C° 0 mm 6 mps 761 mmHg 70%
    20:00 +26°C° 0 mm 6 mps 762 mmHg 72%
    21:00 +26°C° 0 mm 6 mps 762 mmHg 73%
    22:00 +26°C° 0 mm 6 mps 761 mmHg 74%
    23:00 +26°C° 0 mm 6 mps 761 mmHg 75%

    18 December, Monday

    Time Temperature Precipitation Wind Pressure Humidity
    00:00 +26°C° 0 mm 5 mps 761 mmHg 76%
    01:00 +25°C° 0 mm 5 mps 760 mmHg 77%
    02:00 +25°C° 0 mm 5 mps 760 mmHg 77%
    03:00 +25°C° 0 mm 5 mps 760 mmHg 78%
    04:00 +25°C° 0 mm 5 mps 760 mmHg 79%
    05:00 +23°C° 0 mm 5 mps 760 mmHg 79%
    06:00 +26°C° 0 mm 5 mps 761 mmHg 74%
    07:00 +27°C° 0 mm 6 mps 761 mmHg 69%
    08:00 +28°C° 0 mm 6 mps 762 mmHg 64%
    09:00 +29°C° 0 mm 7 mps 762 mmHg 60%
    10:00 +30°C° 0 mm 7 mps 762 mmHg 56%
    11:00 +32°C° 0 mm 7 mps 762 mmHg 53%
    12:00 +32°C° 0 mm 8 mps 761 mmHg 53%
    13:00 +32°C° 0 mm 8 mps 760 mmHg 53%
    14:00 +32°C° 0 mm 8 mps 759 mmHg 53%
    15:00 +31°C° 0 mm 8 mps 759 mmHg 58%
    16:00 +29°C° 0 mm 7 mps 759 mmHg 62%
    17:00 +27°C° 0 mm 7 mps 759 mmHg 66%
    18:00 +27°C° 0 mm 7 mps 760 mmHg 67%
    19:00 +26°C° 0 mm 7 mps 761 mmHg 68%
    20:00 +26°C° 0 mm 6 mps 761 mmHg 70%
    21:00 +24°C° 0 mm 6 mps 761 mmHg 71%
    22:00 +24°C° 0 mm 6 mps 761 mmHg 73%
    23:00 +25°C° 0 mm 5 mps 761 mmHg 74%

    19 December, Tuesday

    Time Temperature Precipitation Wind Pressure Humidity
    00:00 +25°C° 0 mm 5 mps 760 mmHg 76%
    01:00 +23°C° 0 mm 5 mps 760 mmHg 78%
    02:00 +23°C° 0 mm 5 mps 759 mmHg 80%
    03:00 +23°C° 0 mm 5 mps 759 mmHg 80%
    04:00 +23°C° 0 mm 5 mps 759 mmHg 81%
    05:00 +23°C° 0 mm 6 mps 760 mmHg 81%
    06:00 +24°C° 0.2 mm 6 mps 760 mmHg 79%
    07:00 +26°C° 0.2 mm 7 mps 761 mmHg 76%
    08:00 +27°C° 0.2 mm 7 mps 761 mmHg 73%
    09:00 +27°C° 0.6 mm 7 mps 761 mmHg 74%
    10:00 +28°C° 0.6 mm 7 mps 761 mmHg 74%
    11:00 +28°C° 0.6 mm 7 mps 761 mmHg 74%
    12:00 +29°C° 1 mm 7 mps 760 mmHg 74%
    13:00 +29°C° 1 mm 8 mps 759 mmHg 73%
    14:00 +29°C° 1 mm 8 mps 759 mmHg 73%
    15:00 +29°C° 1.3 mm 7 mps 759 mmHg 77%
    16:00 +28°C° 1.3 mm 7 mps 759 mmHg 81%
    17:00 +27°C° 1.3 mm 7 mps 759 mmHg 85%
    18:00 +27°C° 1.4 mm 7 mps 760 mmHg 86%
    19:00 +27°C° 1.4 mm 7 mps 760 mmHg 88%
    20:00 +26°C° 1.4 mm 6 mps 761 mmHg 89%
    21:00 +26°C° 1.5 mm 6 mps 761 mmHg 89%
    22:00 +26°C° 1.5 mm 6 mps 761 mmHg 90%
    23:00 +26°C° 1.5 mm 6 mps 760 mmHg 90%

    20 December, Wednesday

    Time Temperature Precipitation Wind Pressure Humidity
    00:00 +26°C° 1.3 mm 6 mps 760 mmHg 90%
    01:00 +26°C° 1.3 mm 6 mps 760 mmHg 90%
    02:00 +26°C° 1.3 mm 6 mps 759 mmHg 90%
    03:00 +26°C° 1.1 mm 6 mps 759 mmHg 90%
    04:00 +26°C° 1.1 mm 6 mps 759 mmHg 90%
    05:00 +26°C° 1.1 mm 6 mps 760 mmHg 90%
    06:00 +26°C° 0.8 mm 6 mps 760 mmHg 87%
    07:00 +27°C° 0.8 mm 6 mps 761 mmHg 85%
    08:00 +28°C° 0.8 mm 6 mps 762 mmHg 82%
    09:00 +28°C° 0.6 mm 6 mps 761 mmHg 79%
    10:00 +29°C° 0.6 mm 7 mps 761 mmHg 76%
    11:00 +30°C° 0.6 mm 7 mps 761 mmHg 72%
    12:00 +30°C° 0.4 mm 7 mps 760 mmHg 72%
    13:00 +30°C° 0.4 mm 7 mps 760 mmHg 71%
    14:00 +30°C° 0.4 mm 7 mps 759 mmHg 71%
    15:00 +30°C° 0.2 mm 7 mps 759 mmHg 74%
    16:00 +29°C° 0.2 mm 7 mps 759 mmHg 77%
    17:00 +28°C° 0.2 mm 7 mps 759 mmHg 80%
    18:00 +28°C° 0.1 mm 7 mps 760 mmHg 82%
    19:00 +27°C° 0.1 mm 7 mps 760 mmHg 83%
    20:00 +27°C° 0.1 mm 7 mps 761 mmHg 84%
    21:00 +27°C° 0.1 mm 7 mps 761 mmHg 85%
    22:00 +27°C° 0.1 mm 7 mps 761 mmHg 85%
    23:00 +27°C° 0.1 mm 7 mps 761 mmHg 85%
    Show more